Cloud_Cover
1 0 0 0 0 0 0 0 0 0 0 0 0 0 0 0 9 0 0 0 0 0 0 0 0 0 0 4 0 0 28 62 32 14 5 0 0 0 0 0 0 0 0 0 0
5 2 0 0 0 0 0 0 0 0 0 0 0 0 0 4 0 0 0 0 0 0 0 0 0 0 0 4 5 3 76 6 0 0 4 0 0 0 0 0 0 0 0 0 0
3 0 0 0 0 0 0 0 0 0 0 0 0 0 0 16 0 0 0 0 0 0 0 0 0 0 0 4 7 12 86 0 0 0 0 0 0 0 0 0 0 0 0 0 0
5 5 0 0 0 0 0 0 0 0 0 0 0 0 0 0 0 0 0 0 0 0 0 0 0 0 0 3 4 6 2 23 0 0 0 0 0 0 0 0 0 0 0 0 0
1 5 5 5 0 0 0 0 0 0 0 0 0 0 1 0 0 0 0 0 0 0 0 0 0 0 0 0 6 5 0 0 0 0 0 0 0 0 0 0 0 0 0 0 0
3 0 0 0 0 0 0 0 0 0 0 0 0 36 0 0 0 0 0 0 0 0 0 0 0 0 0 1 26 0 3 0 0 0 0 0 0 0 0 0 0 0 0 0 0
0 0 0 5 0 0 0 0 0 0 0 0 0 0 0 0 0 0 0 0 0 0 0 0 0 0 0 1 1 0 3 4 0 0 0 0 0 0 0 0 0 0 0 0 43
0 0 0 1 0 0 0 0 0 0 0 0 2 0 0 0 0 0 0 0 0 0 0 0 0 0 0 0 0 5 1 8 0 0 0 0 25 0 0 0 0 0 0 19 97
0 0 0 0 0 0 0 0 0 0 0 0 7 0 0 0 0 0 0 0 0 0 0 0 0 0 0 0 0 1 90 4 0 0 0 0 2 0 0 0 0 0 0 34 43
0 0 0 0 0 0 0 0 0 0 13 0 0 0 0 0 0 0 0 0 0 0 0 0 0 0 0 0 4 5 3 0 0 0 1 2 0 0 0 0 0 0 0 4 53
0 0 0 0 0 0 2 0 0 0 0 0 0 0 0 0 0 0 0 0 0 0 0 0 0 0 0 0 0 0 0 0 0 4 18 48 5 0 0 0 0 0 0 50 18
0 0 0 0 0 0 3 0 0 0 0 0 0 0 0 0 0 0 0 0 0 0 0 0 0 0 0 0 0 0 0 0 0 47 10 5 5 0 0 0 0 0 73 100 100
0 0 0 0 0 10 0 0 0 0 0 0 0 0 0 0 0 0 0 0 0 0 0 3 0 0 0 7 4 3 0 0 0 44 13 4 5 33 1 2 0 0 20 90 100
0 0 0 13 9 0 0 0 0 0 0 0 0 0 0 0 0 0 0 37 5 0 0 5 1 2 73 100 79 5 3 0 3 64 90 5 90 23 6 22 0 4 0 91 100
0 8 5 24 0 0 0 0 0 0 0 0 0 0 0 0 0 0 0 3 100 61 3 3 3 97 100 100 100 1 5 0 17 98 5 16 43 100 100 73 0 4 0 1 77
13 24 49 0 0 0 0 0 5 0 0 0 0 0 0 0 0 0 0 0 3 100 100 46 15 1 9 83 100 18 5 77 89 27 5 98 96 75 97 32 0 0 0 0 22
20 24 40 0 0 0 0 3 5 0 2 0 0 0 0 0 0 0 0 0 0 0 1 0 0 0 0 0 0 0 5 68 100 56 6 43 54 100 6 5 0 0 0 0 0
54 33 5 0 5 0 0 5 3 4 7 35 11 13 5 0 0 0 0 0 0 2 0 0 4 16 0 97 77 44 100 100 53 5 96 64 6 23 15 0 0 0 0 0 0
20 5 3 0 0 32 11 5 30 100 100 70 69 25 5 6 5 5 5 6 7 7 5 5 6 95 7 56 55 69 100 86 88 8 21 1 14 100 10 0 0 0 0 0 0
5 4 1 5 5 50 100 78 94 100 100 100 94 61 67 55 73 68 84 72 40 5 5 4 5 79 98 71 4 0 2 90 100 100 99 5 94 100 1 0 0 0 0 0 0
51 54 13 56 99 51 91 100 100 100 100 100 100 100 55 42 64 100 96 97 14 5 5 5 5 5 5 2 5 5 3 6 94 100 100 87 56 100 5 0 0 0 0 0 0
100 98 99 97 99 89 100 100 100 100 100 100 100 100 100 100 98 81 100 23 7 5 5 5 5 5 4 4 0 0 6 88 100 94 100 100 99 100 5 0 0 0 0 0 0
100 100 93 42 96 100 100 100 100 100 100 100 100 100 100 100 100 100 64 34 12 5 5 5 5 5 5 3 0 5 72 89 83 100 100 100 100 5 4 5 1 0 0 0 0
63 93 100 100 92 100 100 100 100 100 100 100 100 100 100 100 100 100 85 64 5 5 5 5 5 43 85 50 4 38 76 71 99 100 97 100 98 6 35 7 1 0 0 0 0
61 5 34 99 100 64 90 100 100 99 90 100 100 100 76 100 100 100 66 70 5 5 5 5 31 100 100 15 85 99 97 100 100 100 100 100 100 6 1 0 0 0 0 0 0
6 43 6 34 98 100 54 64 60 100 100 100 100 100 100 100 100 79 66 76 73 74 29 5 5 99 75 6 16 20 78 100 100 100 100 100 99 6 5 5 0 0 0 0 0
29 4 5 5 17 66 62 14 19 72 96 100 100 100 100 79 95 100 84 70 75 100 83 5 5 44 49 5 2 1 10 100 97 89 79 49 25 18 4 1 0 0 0 0 0